[[{"header":{"parameterUnit":"m.s-1","parameterCategory":2,"la1":30.2991,"la2":30.254,"lo1":-89.0895,"lo2":-89.0444,"dy":0.0017,"dx":0.0017,"nx":28,"ny":28,"refTime":"2024-03-06T09:00:00:Z","depth":"0","parameterNumber":2,"parameterNumberName":"U-component_of_CURRENTS"},"data":[0,0,0,0,0,0,0,0,0,0,0,0,0,0,0,0,0,0,0,0,0,0,0,0,0,0,0,0,0,0,0,0,0,0,0,0,0,0,0,0,0,0,0,0,0,0,0,0,0,0,0,0,0,0,0,0,0,0,-0.2447,-0.2448,0,-0.2483,-0.2484,-0.2484,-0.2457,-0.2456,-0.2455,-0.2455,-0.2398,-0.2398,-0.2397,0,0,0,0,0,0,0,0,0,0,0,0,0,-0.2349,-0.2351,-0.2447,-0.2448,-0.2448,-0.2483,-0.2484,-0.2484,-0.2458,-0.2456,-0.2455,-0.2454,-0.2399,-0.2398,-0.2397,0,0,0,0,0,0,0,0,0,0,0,0,0,-0.2387,-0.2352,-0.2447,-0.2441,-0.2441,-0.2483,-0.2484,-0.2484,-0.2458,-0.2456,-0.2455,-0.2454,-0.2399,-0.2398,-0.2397,-0.242,0,0,-0.2394,-0.2394,0,0,0,0,0,0,0,0,-0.2385,-0.2391,-0.2441,-0.2441,-0.2442,-0.2466,-0.2429,-0.2459,-0.2458,-0.2449,-0.2454,-0.2453,-0.2415,-0.2413,-0.2421,-0.2418,-0.2415,-0.2394,-0.2394,-0.2393,-0.2393,0,0,0,0,0,0,0,-0.2383,-0.2389,-0.2459,-0.2442,-0.2442,-0.2435,-0.2438,-0.2435,-0.2436,-0.245,-0.2448,-0.2457,-0.2414,-0.2422,-0.2419,-0.2415,-0.2394,-0.2393,-0.2393,-0.2393,-0.2417,-0.2418,0,0,0,0,0,0,-0.2385,-0.2387,-0.2458,-0.246,-0.2412,-0.2438,-0.2442,-0.2458,-0.2438,-0.2435,-0.2458,-0.2455,-0.2424,-0.242,-0.2417,-0.244,-0.2393,-0.2392,-0.2392,-0.2416,-0.2418,-0.2419,0,0,0,0,0,0,-0.2383,-0.2391,-0.2456,-0.2425,-0.2433,-0.2442,-0.246,-0.246,-0.2462,-0.2446,-0.244,-0.246,-0.2423,-0.2418,-0.2414,-0.2437,-0.2392,-0.2391,-0.2415,-0.2417,-0.2418,-0.2488,0,0,0,0,0,0,-0.238,-0.2391,-0.2398,-0.2426,-0.2435,-0.2483,-0.2461,-0.2461,-0.2471,-0.2468,-0.2446,-0.244,-0.2421,-0.2416,-0.2413,-0.2435,-0.2391,-0.2413,-0.2415,-0.2418,-0.2484,-0.2492,-0.2498,0,0,0,0,0,-0.2377,-0.2393,-0.2399,-0.2407,-0.2447,-0.2485,-0.2489,-0.2487,-0.2472,-0.2482,-0.2465,-0.244,-0.2428,-0.2416,-0.2413,-0.2435,-0.2412,-0.2415,-0.2417,-0.2481,-0.249,-0.2498,0,0,0,0,0,0,-0.2349,-0.2394,-0.2399,-0.2427,-0.2455,-0.2481,-0.249,-0.2491,-0.2489,-0.2481,-0.2455,-0.2448,-0.2454,-0.2437,-0.2424,-0.2449,-0.2417,-0.2419,-0.2466,-0.2475,-0.2482,-0.2476,-0.239,0,0,0,0,0,-0.2351,-0.2375,-0.2416,-0.2436,-0.2453,-0.2472,-0.2485,-0.2491,-0.2497,-0.2495,-0.248,-0.2467,-0.2467,-0.2462,-0.2456,-0.247,-0.2452,-0.2483,-0.249,-0.2496,-0.249,-0.2503,-0.251,-0.2428,-0.2428,-0.2428,0,0,-0.2342,-0.2372,-0.2383,-0.2432,-0.2451,-0.2487,-0.2475,-0.2503,-0.2525,-0.2489,-0.2501,-0.249,-0.2476,-0.2492,-0.2493,-0.2478,-0.2509,-0.25,-0.2505,-0.2495,-0.2506,-0.2514,-0.2521,-0.2429,-0.2429,-0.2429,0,0,-0.2354,-0.237,-0.2403,-0.2434,-0.2478,-0.2494,-0.2504,-0.2535,-0.2539,-0.2561,-0.254,-0.2545,-0.2539,-0.2541,-0.254,-0.2584,-0.2547,-0.2579,-0.2612,-0.2625,-0.2632,-0.2638,-0.262,-0.2623,-0.2584,-0.2585,-0.2585,0,-0.2344,-0.2391,-0.2415,-0.2461,-0.2485,-0.2499,-0.2538,-0.2555,-0.2577,-0.2591,-0.2569,-0.2581,-0.2567,-0.2594,-0.2605,-0.2601,-0.2586,-0.2581,-0.2635,-0.264,-0.2644,-0.2625,-0.2628,-0.2588,-0.2588,-0.2587,-0.2587,0,-0.2391,-0.2424,-0.2445,-0.2506,-0.2536,-0.2568,-0.2604,-0.2626,-0.2629,-0.2647,-0.267,-0.2656,-0.2661,-0.2665,-0.2644,-0.2676,-0.2646,-0.2642,-0.2612,-0.2657,-0.2633,-0.2635,-0.2593,-0.2592,-0.2591,-0.259,0,0,-0.2381,-0.2462,-0.2469,-0.2508,-0.2561,-0.2599,-0.2636,-0.2686,-0.2713,-0.2726,-0.2755,-0.2762,-0.2748,-0.2744,-0.2725,-0.2731,-0.275,-0.2696,-0.2695,-0.2677,-0.2752,-0.2569,-0.2553,-0.2754,-0.2755,-0.2756,-0.2721,0,-0.2409,-0.25,-0.2524,-0.2594,-0.2644,-0.2667,-0.2704,-0.2749,-0.2765,-0.2794,-0.2797,-0.2808,-0.2781,-0.2775,-0.2784,-0.2761,-0.2758,-0.2758,-0.2712,-0.271,-0.2541,-0.255,-0.2423,-0.2366,-0.2722,-0.2723,-0.2723,0,-0.2448,-0.2509,-0.2583,-0.2659,-0.268,-0.2714,-0.2778,-0.2811,-0.2854,-0.2862,-0.2877,-0.2867,-0.2878,-0.2839,-0.2831,-0.2829,-0.279,-0.2767,-0.2765,-0.2566,-0.2529,-0.238,-0.2356,-0.2324,-0.2725,-0.2725,-0.2725,0,-0.2452,-0.2544,-0.2602,-0.263,-0.2716,-0.2746,-0.2782,-0.2835,-0.2856,-0.2893,-0.2898,-0.2921,-0.2909,-0.2894,-0.2819,-0.2838,-0.278,-0.2811,-0.2609,-0.2596,-0.2461,-0.2432,-0.2394,-0.2795,-0.2795,-0.2795,-0.2795,0,-0.2478,-0.2525,-0.2611,-0.2648,-0.2708,-0.2768,-0.281,-0.2848,-0.2884,-0.2892,-0.292,-0.2902,-0.2919,-0.2877,-0.2832,-0.2692,-0.2792,-0.2598,-0.2571,-0.2477,-0.2452,-0.2393,-0.2424,-0.2794,-0.2794,-0.2794,-0.2794,0,-0.2472,-0.2526,-0.2593,-0.2685,-0.2707,-0.2752,-0.2803,-0.2835,-0.2871,-0.2873,-0.2877,-0.2898,-0.2823,-0.2787,-0.2741,-0.2675,-0.2516,-0.2506,-0.2364,-0.2319,-0.2097,-0.2137,-0.205,-0.2,-0.2312,-0.2307,-0.2303,0,-0.2476,-0.2509,-0.2597,-0.2626,-0.266,-0.2721,-0.2751,-0.2809,-0.2821,-0.2838,-0.2827,-0.2778,-0.2664,-0.2518,-0.2414,-0.228,-0.2303,-0.2092,-0.2102,-0.2039,-0.2068,-0.2113,-0.2084,-0.1969,-0.1963,-0.1958,-0.1953,0,-0.2459,-0.2478,-0.2532,-0.2589,-0.2627,-0.2648,-0.2688,-0.2683,-0.2724,-0.2689,-0.2593,-0.2502,-0.2376,-0.2155,-0.1999,-0.1932,-0.2023,-0.1974,-0.1976,-0.1827,-0.1812,-0.1765,-0.2033,-0.1906,-0.1911,-0.1914,-0.1917,-0.1919,-0.2411,-0.2432,-0.2479,-0.2525,-0.2566,-0.2529,-0.2451,-0.2467,-0.2388,-0.2262,-0.2311,-0.2101,-0.1969,-0.1712,-0.1643,-0.1503,-0.1637,-0.1469,-0.1534,-0.1593,-0.1498,-0.1615,-0.1407,-0.1409,-0.141,-0.1412,-0.1413,0,-0.2329,-0.2361,-0.2409,-0.2415,-0.2386,-0.2431,-0.2368,-0.2224,-0.2029,-0.1974,-0.1813,-0.1592,-0.1379,-0.1321,-0.1182,-0.1104,-0.1152,-0.1098,-0.1193,-0.1196,-0.1344,-0.1277,-0.0949,-0.0949,-0.0949,-0.0949,-0.0949,-0.0949,-0.2282,-0.2279,-0.2307,-0.2218,-0.2205,-0.2023,-0.1915,-0.1724,-0.1605,-0.1327,-0.1195,-0.1151,-0.1101,-0.1084,-0.0969,-0.0927,-0.097,-0.09,-0.0982,-0.1145,-0.1188,-0.1229,-0.1172,-0.0827,-0.0827,-0.0784,-0.0784,-0.0783]},{"header":{"parameterUnit":"m.s-1","parameterCategory":2,"la1":30.2991,"la2":30.254,"lo1":-89.0895,"lo2":-89.0444,"dy":0.0017,"dx":0.0017,"nx":28,"ny":28,"refTime":"2024-03-06T09:00:00:Z","depth":"0","parameterNumber":3,"parameterNumberName":"V-component_of_CURRENTS"},"data":[0,0,0,0,0,0,0,0,0,0,0,0,0,0,0,0,0,0,0,0,0,0,0,0,0,0,0,0,0,0,0,0,0,0,0,0,0,0,0,0,0,0,0,0,0,0,0,0,0,0,0,0,0,0,0,0,0,0,-0.0478,-0.0477,0,-0.0383,-0.0382,-0.038,-0.0318,-0.0318,-0.0318,-0.0318,-0.0186,-0.0182,-0.0179,0,0,0,0,0,0,0,0,0,0,0,0,0,-0.0503,-0.0503,-0.0478,-0.0477,-0.0476,-0.0383,-0.0381,-0.038,-0.0318,-0.0318,-0.0318,-0.0318,-0.0187,-0.0183,-0.0179,0,0,0,0,0,0,0,0,0,0,0,0,0,-0.0456,-0.0503,-0.0478,-0.0436,-0.0431,-0.0383,-0.0381,-0.038,-0.0318,-0.0318,-0.0318,-0.0318,-0.0188,-0.0183,-0.0178,-0.0152,0,0,-0.0163,-0.0161,0,0,0,0,0,0,0,0,-0.0459,-0.0455,-0.0443,-0.0439,-0.0434,-0.0364,-0.0342,-0.0302,-0.0318,-0.0359,-0.0318,-0.0318,-0.0244,-0.0234,-0.0214,-0.0146,-0.014,-0.0162,-0.0159,-0.0157,-0.0156,0,0,0,0,0,0,0,-0.0462,-0.0458,-0.0438,-0.0442,-0.0436,-0.0386,-0.038,-0.0334,-0.0301,-0.0355,-0.0351,-0.0344,-0.0241,-0.0219,-0.021,-0.0138,-0.0163,-0.0158,-0.0155,-0.0153,-0.0021,-0.0021,0,0,0,0,0,0,-0.0485,-0.0462,-0.0441,-0.0435,-0.0449,-0.0387,-0.038,-0.0385,-0.0302,-0.0291,-0.0345,-0.0342,-0.0228,-0.0216,-0.0205,-0.0164,-0.0157,-0.0153,-0.015,-0.0022,-0.0021,-0.0021,0,0,0,0,0,0,-0.0486,-0.0485,-0.0445,-0.0447,-0.0439,-0.0388,-0.0393,-0.0383,-0.0363,-0.0295,-0.0282,-0.0335,-0.0227,-0.0212,-0.0158,-0.0158,-0.015,-0.0146,-0.0022,-0.0021,-0.0021,-0.0084,0,0,0,0,0,0,-0.0487,-0.0486,-0.0497,-0.045,-0.044,-0.0419,-0.0393,-0.0381,-0.036,-0.0355,-0.0283,-0.027,-0.0226,-0.0166,-0.0153,-0.0151,-0.0142,-0.0023,-0.0022,-0.0021,-0.0082,-0.0085,-0.0088,0,0,0,0,0,-0.0489,-0.0509,-0.0498,-0.0496,-0.0458,-0.0419,-0.0409,-0.0369,-0.036,-0.035,-0.0298,-0.0273,-0.0151,-0.0161,-0.0146,-0.0143,-0.0023,-0.0022,-0.0021,-0.0081,-0.0085,-0.0088,0,0,0,0,0,0,-0.0525,-0.0503,-0.0491,-0.0503,-0.0465,-0.041,-0.0404,-0.0376,-0.0327,-0.0325,-0.0262,-0.0245,-0.0197,-0.016,-0.0173,-0.0101,-0.0084,-0.008,-0.0135,-0.0138,-0.0141,-0.0163,-0.0138,0,0,0,0,0,-0.054,-0.0552,-0.051,-0.052,-0.0507,-0.0457,-0.0438,-0.0409,-0.0361,-0.034,-0.0287,-0.0232,-0.0181,-0.0153,-0.01,-0.0062,-0.0025,-0.005,-0.0053,-0.0056,-0.0063,-0.003,-0.0031,-0.0017,-0.0017,-0.0017,0,0,-0.0559,-0.0548,-0.0555,-0.0528,-0.05,-0.0477,-0.0444,-0.0421,-0.0396,-0.0333,-0.0288,-0.0238,-0.0172,-0.0125,-0.0101,-0.0095,-0.0031,-0.0055,-0.0058,-0.0063,-0.0029,-0.0031,-0.0032,-0.0016,-0.0016,-0.0017,0,0,-0.0592,-0.059,-0.0603,-0.0576,-0.0539,-0.0501,-0.0498,-0.0441,-0.0413,-0.0362,-0.0312,-0.0268,-0.0184,-0.0141,-0.0108,-0.0096,-0.0047,-0.0077,-0.011,-0.0078,-0.008,-0.0081,-0.0003,0.0004,-0.008,-0.008,-0.0081,0,-0.0613,-0.0624,-0.0597,-0.0591,-0.0574,-0.0516,-0.0508,-0.0467,-0.0397,-0.0383,-0.0355,-0.025,-0.0194,-0.0147,-0.0136,-0.0104,-0.0063,-0.0106,-0.0084,-0.0085,-0.0085,-0.0005,0.0003,-0.0083,-0.0083,-0.0083,-0.0082,0,-0.0644,-0.0647,-0.0652,-0.0628,-0.0601,-0.0588,-0.0529,-0.05,-0.046,-0.0422,-0.037,-0.0289,-0.0232,-0.0205,-0.0161,-0.0132,-0.0093,-0.0094,-0.0084,-0.0091,-0.0004,0.0005,-0.0088,-0.0086,-0.0086,-0.0085,0,0,-0.07,-0.068,-0.0679,-0.0681,-0.0622,-0.0609,-0.057,-0.0528,-0.0527,-0.0448,-0.0429,-0.0338,-0.0307,-0.0267,-0.0209,-0.0176,-0.0122,-0.0138,-0.0134,-0.0073,-0.0016,0.0035,0.005,-0.0127,-0.0126,-0.0126,0.0055,0,-0.0728,-0.0742,-0.0711,-0.0711,-0.0712,-0.0653,-0.0631,-0.0588,-0.0542,-0.0507,-0.0428,-0.0383,-0.0326,-0.0299,-0.0256,-0.0155,-0.0106,-0.0168,-0.0007,-0.0002,0.0032,0.0059,0.0059,0.022,0.0064,0.0066,0.0067,0,-0.0759,-0.0768,-0.078,-0.0774,-0.077,-0.0755,-0.0729,-0.0698,-0.0635,-0.0601,-0.0542,-0.0475,-0.0383,-0.0348,-0.0185,-0.0227,-0.0127,-0.0052,-0.0044,0.0026,0.0064,0.0197,0.0243,0.0333,0.0082,0.008,0.0079,0,-0.0816,-0.0814,-0.0833,-0.0827,-0.0804,-0.0803,-0.0782,-0.0736,-0.0727,-0.0653,-0.0634,-0.0528,-0.0449,-0.0337,-0.0147,-0.0172,0.0037,0.002,0.0164,0.0171,0.0215,0.0224,0.035,0.0116,0.0115,0.0115,0.0114,0,-0.0857,-0.0874,-0.087,-0.0882,-0.092,-0.087,-0.0893,-0.0859,-0.0813,-0.0794,-0.0687,-0.062,-0.0448,-0.0297,-0.0155,0.0062,0.0041,0.0173,0.0214,0.0199,0.0204,0.0318,0.0351,0.0122,0.012,0.0119,0.0118,0,-0.0911,-0.0902,-0.0937,-0.0941,-0.0947,-0.0972,-0.0966,-0.099,-0.0919,-0.0878,-0.0849,-0.0676,-0.0456,-0.0266,-0.0038,0.0069,0.0321,0.0329,0.0331,0.0367,0.0542,0.0572,0.0747,0.0814,0.0498,0.05,0.0502,0,-0.0935,-0.096,-0.0998,-0.1041,-0.1046,-0.1073,-0.1103,-0.105,-0.1055,-0.0891,-0.0873,-0.0645,-0.0445,-0.0075,0.0141,0.0405,0.0461,0.0536,0.0467,0.0568,0.0631,0.0634,0.0677,0.0527,0.0529,0.0531,0.0532,0,-0.0992,-0.1008,-0.1048,-0.1145,-0.1191,-0.122,-0.1235,-0.1242,-0.1145,-0.105,-0.0841,-0.0649,-0.028,0.0044,0.0359,0.0494,0.0586,0.0574,0.0666,0.0657,0.0682,0.076,0.0427,0.0546,0.0544,0.0543,0.0543,0.0542,-0.1036,-0.1095,-0.1165,-0.1253,-0.1315,-0.1337,-0.1316,-0.1281,-0.1198,-0.0983,-0.0819,-0.047,-0.0073,0.0389,0.0542,0.0783,0.0747,0.0822,0.0856,0.0856,0.0889,0.061,0.0768,0.0768,0.0768,0.0768,0.0768,0,-0.1087,-0.1168,-0.1273,-0.1351,-0.1416,-0.1412,-0.1392,-0.1305,-0.1144,-0.0916,-0.0652,-0.0132,0.0247,0.0579,0.0923,0.1045,0.1052,0.1098,0.1087,0.1122,0.0871,0.0837,0.1032,0.1032,0.1032,0.1032,0.1032,0.1031,-0.1117,-0.1236,-0.1302,-0.1421,-0.146,-0.1435,-0.1384,-0.121,-0.1019,-0.0589,-0.0242,0.0026,0.0472,0.0969,0.1259,0.1279,0.1381,0.1362,0.1446,0.1244,0.1219,0.1196,0.1172,0.1434,0.1434,0.1661,0.1663,0.1665]}],[{"header":{"parameterUnit":"m.s-1","parameterCategory":2,"la1":30.2991,"la2":30.254,"lo1":-89.0895,"lo2":-89.0444,"dy":0.0017,"dx":0.0017,"nx":28,"ny":28,"refTime":"2024-03-06T09:00:00:Z","depth":"2","parameterNumber":2,"parameterNumberName":"U-component_of_CURRENTS"},"data":[0,0,0,0,0,0,0,0,0,0,0,0,0,0,0,0,0,0,0,0,0,0,0,0,0,0,0,0,0,0,0,0,0,0,0,0,0,0,0,0,0,0,0,0,0,0,0,0,0,0,0,0,0,0,0,0,0,0,-0.1331,-0.1332,0,-0.1354,-0.1354,-0.1354,-0.1366,-0.1366,-0.1366,-0.1367,-0.133,-0.1329,-0.1327,0,0,0,0,0,0,0,0,0,0,0,0,0,-0.1264,-0.1265,-0.1331,-0.1332,-0.1332,-0.1354,-0.1354,-0.1354,-0.1366,-0.1366,-0.1366,-0.1367,-0.133,-0.1329,-0.1327,0,0,0,0,0,0,0,0,0,0,0,0,0,-0.1289,-0.1266,-0.1331,-0.1342,-0.1344,-0.1354,-0.1354,-0.1354,-0.1366,-0.1366,-0.1366,-0.1367,-0.1331,-0.1329,-0.1327,-0.1309,0,0,-0.1322,-0.1321,0,0,0,0,0,0,0,0,-0.1287,-0.1291,-0.134,-0.1341,-0.1343,-0.136,-0.1318,-0.1337,-0.1366,-0.1355,-0.1367,-0.1367,-0.1335,-0.1333,-0.1334,-0.1308,-0.1306,-0.1321,-0.132,-0.132,-0.1319,0,0,0,0,0,0,0,-0.1286,-0.129,-0.1338,-0.1341,-0.1343,-0.1335,-0.1339,-0.1321,-0.134,-0.1356,-0.1357,-0.1364,-0.1336,-0.1336,-0.1333,-0.1306,-0.1321,-0.132,-0.1319,-0.1318,-0.1282,-0.1282,0,0,0,0,0,0,-0.1289,-0.1288,-0.1337,-0.1339,-0.1318,-0.1336,-0.1341,-0.1352,-0.1341,-0.1341,-0.1363,-0.1364,-0.1339,-0.1335,-0.1332,-0.1362,-0.132,-0.1318,-0.1317,-0.1282,-0.1282,-0.1282,0,0,0,0,0,0,-0.1288,-0.1294,-0.1336,-0.1315,-0.1321,-0.1338,-0.135,-0.1352,-0.1358,-0.1348,-0.1347,-0.1368,-0.1339,-0.1335,-0.1321,-0.1358,-0.1317,-0.1316,-0.1282,-0.1282,-0.1282,-0.1388,0,0,0,0,0,0,-0.1286,-0.1293,-0.1293,-0.1316,-0.1322,-0.1346,-0.135,-0.1353,-0.1363,-0.1364,-0.1351,-0.1348,-0.1339,-0.1324,-0.1319,-0.1355,-0.1314,-0.1282,-0.1282,-0.1282,-0.1384,-0.1391,-0.1398,0,0,0,0,0,-0.1283,-0.1285,-0.1293,-0.1299,-0.1326,-0.1347,-0.1349,-0.136,-0.1362,-0.1366,-0.1357,-0.1349,-0.1322,-0.1322,-0.1317,-0.1353,-0.1282,-0.1282,-0.1282,-0.1381,-0.139,-0.1398,0,0,0,0,0,0,-0.1249,-0.1287,-0.1297,-0.1308,-0.1328,-0.135,-0.1348,-0.1361,-0.1358,-0.1354,-0.1346,-0.1342,-0.1344,-0.1321,-0.1322,-0.1339,-0.1302,-0.1301,-0.1379,-0.1387,-0.1394,-0.1423,-0.1313,0,0,0,0,0,-0.1244,-0.1259,-0.1292,-0.1299,-0.1308,-0.1329,-0.1336,-0.1349,-0.1354,-0.1354,-0.135,-0.134,-0.1339,-0.1341,-0.1323,-0.1331,-0.135,-0.1349,-0.1356,-0.1362,-0.138,-0.1495,-0.1516,-0.1283,-0.1283,-0.1283,0,0,-0.1229,-0.1254,-0.126,-0.1293,-0.1305,-0.1335,-0.1333,-0.1347,-0.138,-0.1348,-0.1371,-0.1355,-0.1341,-0.1356,-0.1356,-0.1346,-0.142,-0.1362,-0.1369,-0.1383,-0.1498,-0.1521,-0.1542,-0.1283,-0.1283,-0.1283,0,0,-0.1219,-0.1233,-0.1246,-0.1273,-0.1303,-0.1326,-0.1334,-0.136,-0.1376,-0.139,-0.1386,-0.1407,-0.1377,-0.1412,-0.1417,-0.1448,-0.1446,-0.1419,-0.1496,-0.1608,-0.163,-0.165,-0.1643,-0.1662,-0.1435,-0.1436,-0.1436,0,-0.1201,-0.1235,-0.125,-0.128,-0.1316,-0.1328,-0.1368,-0.1384,-0.1405,-0.1444,-0.1402,-0.1447,-0.1422,-0.1508,-0.1501,-0.1475,-0.1488,-0.1474,-0.1625,-0.1645,-0.1664,-0.1653,-0.1672,-0.1441,-0.144,-0.144,-0.1439,0,-0.1212,-0.1246,-0.1255,-0.1312,-0.1346,-0.1376,-0.142,-0.1451,-0.1465,-0.1501,-0.1566,-0.1551,-0.1594,-0.1582,-0.1538,-0.1658,-0.1603,-0.1619,-0.1621,-0.1695,-0.1675,-0.1694,-0.1448,-0.1446,-0.1445,-0.1443,0,0,-0.1172,-0.125,-0.1257,-0.1315,-0.1375,-0.1419,-0.1475,-0.1561,-0.1642,-0.1643,-0.176,-0.1743,-0.1753,-0.1757,-0.1739,-0.1813,-0.1911,-0.1758,-0.1761,-0.1777,-0.2078,-0.1856,-0.1853,-0.1968,-0.1973,-0.1977,-0.1991,0,-0.1185,-0.1259,-0.1299,-0.1394,-0.1449,-0.1508,-0.1581,-0.166,-0.1713,-0.1817,-0.1847,-0.1918,-0.1818,-0.1851,-0.1911,-0.1923,-0.1973,-0.19,-0.1979,-0.1979,-0.18,-0.1874,-0.1725,-0.1712,-0.2008,-0.2012,-0.2014,0,-0.1194,-0.1258,-0.1336,-0.1492,-0.1524,-0.1578,-0.1743,-0.1809,-0.1943,-0.1992,-0.2076,-0.2095,-0.2177,-0.2095,-0.2177,-0.2131,-0.2099,-0.2098,-0.21,-0.1879,-0.1795,-0.1694,-0.1734,-0.2044,-0.2042,-0.204,-0.2038,0,-0.1184,-0.1303,-0.1377,-0.1419,-0.1566,-0.1633,-0.1718,-0.1857,-0.1954,-0.2109,-0.2197,-0.2295,-0.2326,-0.2374,-0.2244,-0.2265,-0.2296,-0.2353,-0.2122,-0.2102,-0.1981,-0.1941,-0.2439,-0.2439,-0.2439,-0.2439,-0.2439,0,-0.1193,-0.1271,-0.1378,-0.1421,-0.1568,-0.1653,-0.182,-0.1915,-0.2073,-0.2173,-0.2276,-0.2332,-0.2401,-0.2383,-0.2326,-0.2203,-0.2358,-0.214,-0.212,-0.1996,-0.1959,-0.2262,-0.2241,-0.244,-0.244,-0.244,-0.2439,0,-0.1167,-0.1229,-0.134,-0.1489,-0.1556,-0.1651,-0.1868,-0.1975,-0.2117,-0.2252,-0.2301,-0.2389,-0.2347,-0.2323,-0.2336,-0.2257,-0.221,-0.2111,-0.1868,-0.1819,-0.194,-0.1924,-0.2002,-0.1995,-0.1989,-0.1984,-0.198,0,-0.1176,-0.1209,-0.1365,-0.1454,-0.152,-0.1687,-0.1797,-0.1969,-0.2054,-0.2221,-0.2249,-0.2276,-0.2188,-0.2093,-0.1993,-0.1888,-0.1971,-0.169,-0.1739,-0.1937,-0.1911,-0.1904,-0.1896,-0.1604,-0.1597,-0.1591,-0.1587,0,-0.1193,-0.1212,-0.129,-0.1438,-0.1557,-0.1687,-0.1822,-0.19,-0.2039,-0.2105,-0.2062,-0.2013,-0.1923,-0.1715,-0.157,-0.1509,-0.1721,-0.157,-0.1919,-0.1698,-0.1553,-0.1529,-0.1537,-0.1536,-0.1541,-0.1545,-0.1548,-0.155,-0.1215,-0.1251,-0.1316,-0.1458,-0.1554,-0.1587,-0.1637,-0.1721,-0.1752,-0.1758,-0.1769,-0.1628,-0.1612,-0.1315,-0.1205,-0.1169,-0.1331,-0.1325,-0.1349,-0.1377,-0.129,-0.1139,-0.1022,-0.1024,-0.1026,-0.1027,-0.1029,0,-0.128,-0.1293,-0.1369,-0.1448,-0.1436,-0.1529,-0.1585,-0.1556,-0.1475,-0.1457,-0.1357,-0.1144,-0.0984,-0.0985,-0.0848,-0.0825,-0.0904,-0.0805,-0.0926,-0.0973,-0.1016,-0.0918,-0.0548,-0.0547,-0.0546,-0.0545,0,0,-0.1319,-0.1358,-0.1347,-0.1302,-0.1326,-0.1249,-0.1234,-0.117,-0.1126,-0.0972,-0.0878,-0.0897,-0.0917,-0.0719,-0.0684,-0.0586,-0.0784,-0.0558,-0.0939,-0.1125,-0.1167,-0.1299,-0.1195,0,0,0,0,0]},{"header":{"parameterUnit":"m.s-1","parameterCategory":2,"la1":30.2991,"la2":30.254,"lo1":-89.0895,"lo2":-89.0444,"dy":0.0017,"dx":0.0017,"nx":28,"ny":28,"refTime":"2024-03-06T09:00:00:Z","depth":"2","parameterNumber":3,"parameterNumberName":"V-component_of_CURRENTS"},"data":[0,0,0,0,0,0,0,0,0,0,0,0,0,0,0,0,0,0,0,0,0,0,0,0,0,0,0,0,0,0,0,0,0,0,0,0,0,0,0,0,0,0,0,0,0,0,0,0,0,0,0,0,0,0,0,0,0,0,0.0043,0.0044,0,0.0132,0.0133,0.0134,0.0153,0.0152,0.0151,0.0151,0.0185,0.0187,0.0188,0,0,0,0,0,0,0,0,0,0,0,0,0,-0.0019,-0.0019,0.0043,0.0044,0.0045,0.0131,0.0133,0.0134,0.0153,0.0152,0.0151,0.015,0.0185,0.0187,0.0189,0,0,0,0,0,0,0,0,0,0,0,0,0,0.0033,-0.0019,0.0043,0.0065,0.0067,0.0131,0.0133,0.0134,0.0153,0.0152,0.0151,0.015,0.0184,0.0186,0.0189,0.0225,0,0,0.0196,0.0197,0,0,0,0,0,0,0,0,0.003,0.0035,0.006,0.0063,0.0066,0.0129,0.0123,0.0162,0.0153,0.0121,0.0151,0.0149,0.0162,0.0166,0.0187,0.0226,0.0228,0.0196,0.0198,0.0199,0.0199,0,0,0,0,0,0,0,0.0026,0.0032,0.0079,0.0062,0.0065,0.0101,0.0106,0.0132,0.0146,0.0124,0.0125,0.0134,0.0163,0.0185,0.0188,0.0228,0.0196,0.0198,0.02,0.0201,0.0242,0.0242,0,0,0,0,0,0,0.001,0.0028,0.0076,0.0081,0.0044,0.0102,0.0108,0.0111,0.0147,0.0152,0.0135,0.0135,0.0181,0.0185,0.0189,0.0175,0.0199,0.0201,0.0202,0.0243,0.0242,0.0242,0,0,0,0,0,0,0.0009,0.0014,0.0072,0.0057,0.0066,0.0104,0.0107,0.0113,0.0114,0.0156,0.016,0.0127,0.018,0.0185,0.0198,0.0178,0.0202,0.0204,0.0243,0.0243,0.0242,0.0184,0,0,0,0,0,0,0.0006,0.0012,0.0,0.0055,0.0067,0.0095,0.0108,0.0116,0.0122,0.0122,0.015,0.0154,0.018,0.0194,0.02,0.0182,0.0206,0.0243,0.0243,0.0242,0.0187,0.0182,0.0178,0,0,0,0,0,0.0004,-0.0008,-0.0001,0.0004,0.0051,0.0095,0.0104,0.0128,0.0122,0.0124,0.0142,0.0152,0.0194,0.0197,0.0204,0.0185,0.0244,0.0243,0.0242,0.0188,0.0183,0.0178,0,0,0,0,0,0,-0.0037,-0.0005,0.0003,0.0002,0.0038,0.0097,0.0094,0.0115,0.0134,0.0119,0.0156,0.0162,0.0164,0.0186,0.0188,0.0196,0.0218,0.0218,0.0174,0.0169,0.0165,0.0148,0.0208,0,0,0,0,0,-0.0053,-0.0062,-0.0011,-0.0015,-0.0004,0.004,0.0055,0.0074,0.0104,0.011,0.0132,0.0151,0.0173,0.0178,0.0202,0.021,0.0236,0.0201,0.0196,0.0192,0.0184,0.0195,0.0191,0.024,0.024,0.024,0,0,-0.007,-0.0055,-0.006,-0.0026,-0.0004,0.0015,0.0045,0.0058,0.007,0.011,0.0115,0.0137,0.0173,0.0182,0.0184,0.0193,0.0199,0.0192,0.0188,0.0181,0.0194,0.0189,0.0185,0.0239,0.0239,0.0239,0,0,-0.0108,-0.0099,-0.0118,-0.009,-0.0062,-0.0025,-0.0028,0.0019,0.003,0.005,0.0077,0.009,0.0121,0.0148,0.0165,0.0152,0.0177,0.0148,0.011,0.0121,0.0117,0.0113,0.0166,0.0168,0.0143,0.0143,0.0143,0,-0.0133,-0.0144,-0.0113,-0.0114,-0.01,-0.0049,-0.0052,-0.0019,0.0026,0.0028,0.0036,0.0076,0.0109,0.0124,0.012,0.0141,0.0159,0.0125,0.0114,0.0111,0.0108,0.0163,0.0166,0.014,0.0141,0.0141,0.0141,0,-0.0173,-0.018,-0.0188,-0.0175,-0.0152,-0.0147,-0.0094,-0.0081,-0.0065,-0.0034,-0.0027,0.0022,0.0039,0.0055,0.0086,0.008,0.0105,0.0108,0.0123,0.0099,0.016,0.0164,0.0136,0.0137,0.0138,0.0139,0,0,-0.0231,-0.0222,-0.0227,-0.0236,-0.0187,-0.0176,-0.0155,-0.0124,-0.0135,-0.0092,-0.0103,-0.0051,-0.0042,-0.0021,0.0014,0.0032,0.005,0.0051,0.0053,0.0099,0.0094,0.0111,0.0118,0.0035,0.0034,0.0034,0.0154,0,-0.0275,-0.0306,-0.0277,-0.0294,-0.0302,-0.0247,-0.0234,-0.0202,-0.0175,-0.0169,-0.012,-0.0118,-0.0064,-0.0074,-0.0045,0.0022,0.0051,0.0019,0.0116,0.012,0.0131,0.0119,0.0096,0.0198,0.0158,0.0158,0.0159,0,-0.0322,-0.0338,-0.0372,-0.037,-0.037,-0.0369,-0.0357,-0.0338,-0.0299,-0.0285,-0.0265,-0.0228,-0.0181,-0.015,-0.004,-0.0071,0.0001,0.0061,0.0067,0.01,0.0141,0.0211,0.0207,0.0165,0.0165,0.0164,0.0164,0,-0.0389,-0.0402,-0.0442,-0.0437,-0.042,-0.0435,-0.0427,-0.0392,-0.0391,-0.0372,-0.0383,-0.0314,-0.0284,-0.0203,-0.006,-0.0067,0.0063,0.0074,0.0169,0.0174,0.0183,0.0188,0.0135,0.0135,0.0135,0.0134,0.0134,0,-0.0439,-0.0471,-0.0488,-0.0507,-0.0563,-0.0521,-0.0568,-0.0545,-0.0524,-0.0532,-0.0467,-0.0446,-0.0305,-0.0205,-0.0089,0.0063,0.0047,0.0162,0.0192,0.0166,0.0168,0.0154,0.0155,0.0139,0.0138,0.0137,0.0136,0,-0.0499,-0.0507,-0.056,-0.0582,-0.0598,-0.0643,-0.0659,-0.0681,-0.0656,-0.0664,-0.0666,-0.0538,-0.0399,-0.0242,-0.0068,0.0034,0.0167,0.0223,0.0207,0.0232,0.0284,0.0281,0.0336,0.0337,0.0338,0.0339,0.034,0,-0.0539,-0.0571,-0.0633,-0.0685,-0.0705,-0.076,-0.0789,-0.0759,-0.077,-0.0707,-0.0711,-0.0578,-0.0457,-0.0183,0.0012,0.022,0.0218,0.0305,0.0282,0.0275,0.0299,0.0293,0.0288,0.0298,0.0298,0.0298,0.0299,0,-0.0608,-0.0633,-0.0676,-0.0786,-0.0846,-0.0881,-0.0917,-0.0941,-0.0891,-0.0853,-0.0746,-0.0641,-0.0383,-0.0133,0.0113,0.0223,0.0264,0.0317,0.0304,0.0236,0.0244,0.0266,0.0261,0.0301,0.0301,0.0301,0.0301,0.0301,-0.0673,-0.0731,-0.08,-0.0901,-0.0947,-0.098,-0.1003,-0.0993,-0.0961,-0.0863,-0.0762,-0.055,-0.0353,0.0036,0.0191,0.0333,0.0326,0.0362,0.0359,0.0356,0.0316,0.0323,0.0391,0.0392,0.0392,0.0392,0.0392,0,-0.076,-0.0824,-0.0913,-0.0998,-0.1025,-0.1039,-0.1059,-0.1033,-0.0965,-0.0822,-0.0673,-0.0406,-0.0156,0.0051,0.0283,0.04,0.0383,0.0411,0.0368,0.0364,0.0361,0.0319,0.0397,0.0397,0.0398,0.0398,0,0,-0.0812,-0.0921,-0.0962,-0.1047,-0.1081,-0.1087,-0.1088,-0.101,-0.0896,-0.0709,-0.0517,-0.0335,-0.0103,0.0065,0.0198,0.0316,0.0307,0.0318,0.0298,0.0226,0.0222,0.0314,0.0242,0,0,0,0,0]}],[{"header":{"parameterUnit":"m.s-1","parameterCategory":2,"la1":30.2991,"la2":30.254,"lo1":-89.0895,"lo2":-89.0444,"dy":0.0017,"dx":0.0017,"nx":28,"ny":28,"refTime":"2024-03-06T09:00:00:Z","depth":"4","parameterNumber":2,"parameterNumberName":"U-component_of_CURRENTS"},"data":[0,0,0,0,0,0,0,0,0,0,0,0,0,0,0,0,0,0,0,0,0,0,0,0,0,0,0,0,0,0,0,0,0,0,0,0,0,0,0,0,0,0,0,0,0,0,0,0,0,0,0,0,0,0,0,0,0,0,-0.073,-0.073,0,-0.0763,-0.0764,-0.0764,-0.0786,-0.0786,-0.0786,-0.0787,-0.0812,-0.0813,-0.0813,0,0,0,0,0,0,0,0,0,0,0,0,0,-0.0677,-0.0678,-0.073,-0.073,-0.0731,-0.0763,-0.0764,-0.0764,-0.0786,-0.0786,-0.0787,-0.0787,-0.0812,-0.0813,-0.0813,0,0,0,0,0,0,0,0,0,0,0,0,0,-0.0703,-0.0678,-0.073,-0.0747,-0.0749,-0.0763,-0.0764,-0.0764,-0.0786,-0.0786,-0.0787,-0.0787,-0.0812,-0.0813,-0.0813,-0.0808,0,0,-0.0815,-0.0815,0,0,0,0,0,0,0,0,-0.0701,-0.0705,-0.0744,-0.0746,-0.0748,-0.0772,-0.0755,-0.0779,-0.0786,-0.077,-0.0787,-0.0787,-0.0799,-0.0801,-0.0804,-0.0809,-0.0811,-0.0815,-0.0816,-0.0816,-0.0816,0,0,0,0,0,0,0,-0.07,-0.0703,-0.0741,-0.0745,-0.0747,-0.0751,-0.0755,-0.0759,-0.078,-0.0771,-0.0773,-0.078,-0.08,-0.0803,-0.0805,-0.0811,-0.0815,-0.0816,-0.0816,-0.0816,-0.0851,-0.0852,0,0,0,0,0,0,-0.0699,-0.0702,-0.074,-0.0743,-0.0727,-0.0752,-0.0756,-0.0763,-0.078,-0.0784,-0.0779,-0.0781,-0.0802,-0.0804,-0.0806,-0.084,-0.0816,-0.0816,-0.0817,-0.0851,-0.0851,-0.0852,0,0,0,0,0,0,-0.0698,-0.0702,-0.0739,-0.0724,-0.0729,-0.0752,-0.076,-0.0763,-0.0778,-0.0787,-0.079,-0.0792,-0.0802,-0.0805,-0.0822,-0.084,-0.0817,-0.0817,-0.085,-0.0851,-0.0851,-0.0884,0,0,0,0,0,0,-0.0696,-0.0701,-0.0709,-0.0724,-0.073,-0.0756,-0.076,-0.0764,-0.0782,-0.0784,-0.0799,-0.0801,-0.0803,-0.0821,-0.0822,-0.084,-0.0818,-0.0849,-0.085,-0.0851,-0.0882,-0.0885,-0.0888,0,0,0,0,0,-0.0694,-0.0702,-0.0709,-0.0714,-0.0739,-0.0757,-0.0761,-0.0777,-0.0782,-0.0791,-0.0802,-0.0801,-0.0829,-0.0822,-0.0823,-0.0842,-0.0849,-0.085,-0.0851,-0.088,-0.0885,-0.0888,0,0,0,0,0,0,-0.0684,-0.0706,-0.0713,-0.0728,-0.0746,-0.0762,-0.0771,-0.0782,-0.0797,-0.0801,-0.0807,-0.081,-0.0831,-0.083,-0.0822,-0.0854,-0.0839,-0.084,-0.086,-0.0865,-0.0868,-0.0877,-0.0818,0,0,0,0,0,-0.0685,-0.0696,-0.0717,-0.0729,-0.0739,-0.0756,-0.0767,-0.0779,-0.0793,-0.0801,-0.0813,-0.0824,-0.0835,-0.0845,-0.0852,-0.0869,-0.0874,-0.0881,-0.0885,-0.0888,-0.0896,-0.0921,-0.0928,-0.0856,-0.0856,-0.0856,0,0,-0.0685,-0.0698,-0.0705,-0.0728,-0.0741,-0.0759,-0.0763,-0.0783,-0.0803,-0.08,-0.083,-0.0835,-0.0841,-0.0862,-0.0872,-0.0866,-0.0909,-0.0889,-0.0892,-0.0899,-0.0923,-0.093,-0.0936,-0.0857,-0.0857,-0.0856,0,0,-0.0684,-0.0701,-0.0708,-0.0726,-0.0749,-0.0764,-0.0773,-0.0797,-0.0814,-0.0838,-0.0844,-0.0863,-0.0877,-0.0893,-0.0899,-0.0925,-0.0924,-0.0924,-0.0953,-0.0977,-0.0983,-0.0989,-0.1,-0.1006,-0.0928,-0.0928,-0.0928,0,-0.0683,-0.0697,-0.0714,-0.0727,-0.0747,-0.0769,-0.0787,-0.0808,-0.0836,-0.0857,-0.0852,-0.0894,-0.0894,-0.0933,-0.0939,-0.0934,-0.0941,-0.0938,-0.0982,-0.0988,-0.0993,-0.1003,-0.101,-0.093,-0.093,-0.093,-0.0929,0,-0.0685,-0.0704,-0.0711,-0.0738,-0.0761,-0.078,-0.0814,-0.084,-0.0862,-0.0886,-0.0929,-0.0937,-0.0964,-0.0966,-0.0958,-0.1,-0.099,-0.0981,-0.0973,-0.1002,-0.1011,-0.1017,-0.0932,-0.0932,-0.0931,-0.0931,0,0,-0.0661,-0.0705,-0.0708,-0.0728,-0.0771,-0.0789,-0.0831,-0.0878,-0.0918,-0.0943,-0.0991,-0.1009,-0.102,-0.1028,-0.1029,-0.1049,-0.1083,-0.1031,-0.1031,-0.1045,-0.1129,-0.1052,-0.1051,-0.1082,-0.1084,-0.1085,-0.1119,0,-0.0659,-0.0684,-0.0714,-0.075,-0.0768,-0.0814,-0.0857,-0.0904,-0.0946,-0.0997,-0.1023,-0.1063,-0.1043,-0.1061,-0.1078,-0.1079,-0.1102,-0.1074,-0.1097,-0.1098,-0.1028,-0.1057,-0.1089,-0.1123,-0.1125,-0.1126,-0.1127,0,-0.0647,-0.0669,-0.0698,-0.0764,-0.0779,-0.0809,-0.0889,-0.0932,-0.1009,-0.1044,-0.1092,-0.1115,-0.1151,-0.1129,-0.116,-0.1142,-0.1142,-0.1142,-0.1143,-0.1066,-0.1032,-0.1089,-0.1138,-0.1137,-0.1136,-0.1136,-0.1135,0,-0.0609,-0.0661,-0.0685,-0.0704,-0.0778,-0.081,-0.0857,-0.094,-0.0992,-0.1075,-0.1118,-0.1167,-0.1188,-0.1204,-0.1205,-0.1184,-0.1239,-0.1208,-0.1146,-0.114,-0.1186,-0.118,-0.1245,-0.1245,-0.1245,-0.1245,-0.1245,0,-0.0588,-0.061,-0.0668,-0.068,-0.0725,-0.0789,-0.0859,-0.0914,-0.1009,-0.1072,-0.1134,-0.1178,-0.1208,-0.1242,-0.1235,-0.1209,-0.1265,-0.1158,-0.1148,-0.1197,-0.1191,-0.119,-0.1183,-0.1246,-0.1246,-0.1246,-0.1246,0,-0.0537,-0.0576,-0.0602,-0.0674,-0.0702,-0.0728,-0.0843,-0.0902,-0.0993,-0.1075,-0.1103,-0.1186,-0.1216,-0.1256,-0.128,-0.1233,-0.1231,-0.1217,-0.1278,-0.1269,-0.1105,-0.1099,-0.1127,-0.1125,-0.1123,-0.1121,-0.112,0,-0.0513,-0.0519,-0.0577,-0.0596,-0.0627,-0.0692,-0.0751,-0.0867,-0.093,-0.1069,-0.1094,-0.1169,-0.1213,-0.1193,-0.1224,-0.1225,-0.121,-0.12,-0.1136,-0.1108,-0.1095,-0.1093,-0.109,-0.1117,-0.1116,-0.1116,-0.1115,0,-0.0463,-0.048,-0.05,-0.0531,-0.0578,-0.065,-0.0735,-0.0776,-0.0918,-0.1009,-0.1066,-0.1095,-0.113,-0.1134,-0.116,-0.1155,-0.1195,-0.1178,-0.1181,-0.1121,-0.1095,-0.1084,-0.1084,-0.1108,-0.1109,-0.111,-0.111,0,-0.0421,-0.041,-0.0433,-0.0459,-0.0523,-0.0588,-0.0649,-0.0734,-0.0811,-0.0965,-0.0972,-0.1056,-0.112,-0.11,-0.112,-0.1113,-0.1073,-0.1022,-0.1032,-0.104,-0.0993,-0.0947,-0.0913,0,0,0,0,0,-0.0373,-0.0356,-0.0371,-0.0405,-0.0477,-0.0523,-0.0637,-0.071,-0.0839,-0.0857,-0.0919,-0.0956,-0.0979,-0.1008,-0.0979,-0.1056,-0.1069,-0.1015,-0.1014,-0.107,-0.1078,-0.103,0,0,0,0,0,0,-0.0339,-0.0337,-0.0337,-0.0364,-0.0394,-0.0481,-0.0555,-0.0648,-0.0667,-0.0786,-0.0801,-0.0881,-0.0912,-0.0982,-0.0953,-0.0962,-0.0938,-0.1063,-0.106,-0.1065,-0.1073,-0.1079,-0.1032,0,0,0,0,0]},{"header":{"parameterUnit":"m.s-1","parameterCategory":2,"la1":30.2991,"la2":30.254,"lo1":-89.0895,"lo2":-89.0444,"dy":0.0017,"dx":0.0017,"nx":28,"ny":28,"refTime":"2024-03-06T09:00:00:Z","depth":"4","parameterNumber":3,"parameterNumberName":"V-component_of_CURRENTS"},"data":[0,0,0,0,0,0,0,0,0,0,0,0,0,0,0,0,0,0,0,0,0,0,0,0,0,0,0,0,0,0,0,0,0,0,0,0,0,0,0,0,0,0,0,0,0,0,0,0,0,0,0,0,0,0,0,0,0,0,0.0043,0.0043,0,0.006,0.006,0.0061,0.0076,0.0076,0.0076,0.0076,0.0103,0.0103,0.0104,0,0,0,0,0,0,0,0,0,0,0,0,0,0.0037,0.0037,0.0043,0.0043,0.0044,0.006,0.006,0.0061,0.0076,0.0076,0.0076,0.0076,0.0103,0.0103,0.0104,0,0,0,0,0,0,0,0,0,0,0,0,0,0.0046,0.0037,0.0043,0.0053,0.0054,0.006,0.006,0.0061,0.0076,0.0076,0.0076,0.0076,0.0102,0.0103,0.0104,0.0104,0,0,0.0107,0.0107,0,0,0,0,0,0,0,0,0.0045,0.0046,0.0051,0.0052,0.0054,0.0066,0.0068,0.0076,0.0075,0.0067,0.0076,0.0076,0.0091,0.0093,0.0096,0.0105,0.0107,0.0107,0.0107,0.0108,0.0108,0,0,0,0,0,0,0,0.0045,0.0045,0.005,0.0052,0.0053,0.0061,0.0063,0.007,0.0078,0.0068,0.0069,0.0071,0.0092,0.0095,0.0096,0.0107,0.0107,0.0107,0.0108,0.0108,0.0122,0.0122,0,0,0,0,0,0,0.0041,0.0045,0.0049,0.0051,0.005,0.0061,0.0063,0.0062,0.0078,0.008,0.0071,0.0072,0.0093,0.0095,0.0097,0.01,0.0108,0.0108,0.0109,0.0123,0.0122,0.0122,0,0,0,0,0,0,0.0041,0.0041,0.0049,0.0048,0.005,0.0061,0.006,0.0062,0.0066,0.008,0.0082,0.0073,0.0093,0.0096,0.0102,0.0101,0.0109,0.0109,0.0123,0.0122,0.0122,0.0105,0,0,0,0,0,0,0.0041,0.0041,0.004,0.0048,0.005,0.0048,0.006,0.0062,0.0067,0.0068,0.0082,0.0085,0.0094,0.0101,0.0103,0.0103,0.011,0.0123,0.0123,0.0122,0.0106,0.0104,0.0103,0,0,0,0,0,0.004,0.0036,0.004,0.0041,0.0048,0.0047,0.0049,0.0058,0.0066,0.0064,0.0075,0.0084,0.0101,0.0101,0.0104,0.0104,0.0123,0.0123,0.0122,0.0106,0.0105,0.0103,0,0,0,0,0,0,0.0034,0.0037,0.0042,0.0039,0.0042,0.005,0.0049,0.0057,0.0064,0.0066,0.0082,0.0085,0.0088,0.0098,0.0098,0.0107,0.0114,0.0114,0.0101,0.0099,0.0098,0.0088,0.0111,0,0,0,0,0,0.0031,0.0029,0.0034,0.0032,0.0031,0.004,0.0043,0.0047,0.0055,0.0058,0.0069,0.0081,0.0088,0.0096,0.0101,0.0107,0.0117,0.0109,0.0108,0.0107,0.01,0.0126,0.0126,0.0121,0.0121,0.0121,0,0,0.0029,0.0031,0.003,0.003,0.0033,0.0024,0.0042,0.0041,0.0037,0.006,0.006,0.0073,0.0087,0.0092,0.0095,0.0102,0.0111,0.0106,0.0105,0.0099,0.0126,0.0126,0.0127,0.0121,0.0121,0.0121,0,0,0.0016,0.0022,0.0012,0.0009,0.0009,0.0014,0.0013,0.0019,0.0026,0.0027,0.0043,0.0058,0.0066,0.0081,0.0089,0.0084,0.0099,0.0086,0.0077,0.0102,0.0102,0.0103,0.0106,0.0108,0.0091,0.0091,0.0091,0,0.0013,-0.0002,0.0009,-0.0006,-0.0013,0.0007,-0.0012,-0.0002,0.0007,0.0012,0.0021,0.0044,0.0061,0.0072,0.0073,0.0081,0.009,0.0082,0.01,0.0101,0.0102,0.0106,0.0107,0.009,0.009,0.009,0.009,0,-0.0014,-0.0027,-0.0034,-0.0047,-0.0051,-0.0063,-0.0053,-0.0049,-0.0036,-0.0025,-0.0012,0.0016,0.003,0.0042,0.0056,0.0073,0.0074,0.0092,0.0104,0.0102,0.0105,0.0107,0.0089,0.0089,0.0089,0.009,0,0,-0.0018,-0.0049,-0.0051,-0.0072,-0.0077,-0.0086,-0.0088,-0.0087,-0.009,-0.0064,-0.0064,-0.0032,-0.0008,0.0002,0.0031,0.006,0.0078,0.0079,0.0081,0.0081,0.0118,0.012,0.0122,0.0103,0.0104,0.0104,0.0114,0,-0.0044,-0.0087,-0.0092,-0.0131,-0.0154,-0.0143,-0.0153,-0.0145,-0.0126,-0.0118,-0.0073,-0.0063,-0.0025,-0.0016,0.0021,0.0063,0.0084,0.0073,0.0121,0.0122,0.0124,0.0125,0.0106,0.0115,0.0116,0.0116,0.0116,0,-0.007,-0.0099,-0.0145,-0.0185,-0.0195,-0.0211,-0.0222,-0.0226,-0.02,-0.0186,-0.0152,-0.0119,-0.0074,-0.0041,0.0033,0.0025,0.0065,0.0101,0.0102,0.0111,0.0128,0.0121,0.012,0.012,0.0119,0.0119,0.0119,0,-0.0084,-0.0134,-0.0175,-0.0189,-0.0227,-0.0244,-0.0256,-0.0246,-0.0254,-0.0223,-0.0223,-0.0161,-0.0136,-0.0067,0.0015,0.0024,0.0093,0.0114,0.0147,0.0147,0.015,0.0149,0.0156,0.0156,0.0156,0.0156,0.0156,0,-0.011,-0.0141,-0.0189,-0.0212,-0.0267,-0.0275,-0.0316,-0.0311,-0.0308,-0.0323,-0.0258,-0.0249,-0.0139,-0.0082,-0.0005,0.0076,0.0078,0.0139,0.0153,0.014,0.0138,0.015,0.015,0.0157,0.0156,0.0156,0.0156,0,-0.0114,-0.0145,-0.0199,-0.0254,-0.0277,-0.0312,-0.0366,-0.039,-0.0377,-0.039,-0.0384,-0.0314,-0.0234,-0.0132,-0.0024,0.004,0.0121,0.0145,0.0105,0.0117,0.0159,0.0157,0.018,0.018,0.018,0.018,0.018,0,-0.0119,-0.0147,-0.0229,-0.0275,-0.0304,-0.0362,-0.0407,-0.0421,-0.044,-0.043,-0.0435,-0.0366,-0.0309,-0.0156,-0.0045,0.0091,0.0116,0.0147,0.0173,0.0152,0.0163,0.0161,0.0159,0.0181,0.0181,0.0181,0.0181,0,-0.0129,-0.0156,-0.0204,-0.03,-0.0363,-0.0438,-0.0491,-0.0513,-0.0524,-0.0516,-0.0471,-0.0385,-0.0298,-0.016,-0.0057,0.0044,0.0126,0.0149,0.015,0.0175,0.0153,0.0164,0.0162,0.0182,0.0181,0.0181,0.0181,0,-0.013,-0.0167,-0.0236,-0.0323,-0.0408,-0.0488,-0.0521,-0.0544,-0.056,-0.0533,-0.052,-0.0413,-0.0344,-0.0187,-0.009,0.0011,0.0042,0.0077,0.0082,0.0083,0.0063,0.0023,0.0018,0,0,0,0,0,-0.0126,-0.0174,-0.0258,-0.0361,-0.0449,-0.05,-0.0567,-0.0589,-0.0597,-0.0569,-0.054,-0.0453,-0.0294,-0.0219,-0.0117,-0.0091,0.0051,0.003,0.0091,0.0185,0.0184,0.018,0,0,0,0,0,0,-0.0129,-0.0191,-0.0251,-0.0375,-0.0449,-0.0545,-0.0591,-0.0605,-0.0579,-0.0563,-0.0472,-0.0424,-0.0264,-0.0345,-0.0111,-0.0081,-0.0029,0.0109,0.0111,0.0186,0.0185,0.0184,0.018,0,0,0,0,0]}]]